• In Hungary
  • List of Countries
  • For 7 days
  • Water Temperature
  • Satellite Maps
  • Weather Map
  • News
  • Weather Widgets
  • user-avatar
    Login

    Hourly Weather Santa Cruz

    Today, 20 June, Wednesday

    Time Temperature Precipitation Wind Pressure Humidity
    00:00 +26°C° 0 mm 1 mps 737 mmHg 90%
    01:00 +25°C° 0.5 mm 1 mps 737 mmHg 90%
    02:00 +25°C° 0.5 mm 1 mps 737 mmHg 90%
    03:00 +25°C° 0.5 mm 1 mps 737 mmHg 91%
    04:00 +25°C° 0.6 mm 1 mps 737 mmHg 91%
    05:00 +25°C° 0.6 mm 1 mps 737 mmHg 91%
    06:00 +25°C° 0.6 mm 1 mps 737 mmHg 91%
    07:00 +27°C° 0.7 mm 1 mps 737 mmHg 85%
    08:00 +28°C° 0.7 mm 1 mps 738 mmHg 79%
    09:00 +29°C° 0.7 mm 1 mps 738 mmHg 73%
    10:00 +30°C° 0.6 mm 1 mps 738 mmHg 71%
    11:00 +30°C° 0.6 mm 2 mps 737 mmHg 69%
    12:00 +31°C° 0.6 mm 2 mps 737 mmHg 68%
    13:00 +30°C° 1 mm 2 mps 737 mmHg 69%
    14:00 +30°C° 1 mm 2 mps 737 mmHg 71%
    15:00 +30°C° 1 mm 3 mps 736 mmHg 73%
    16:00 +29°C° 0.8 mm 2 mps 736 mmHg 77%
    17:00 +28°C° 0.8 mm 2 mps 736 mmHg 81%
    18:00 +27°C° 0.8 mm 2 mps 736 mmHg 85%
    19:00 +27°C° 0.9 mm 1 mps 737 mmHg 86%
    20:00 +26°C° 0.9 mm 1 mps 737 mmHg 87%
    21:00 +26°C° 0.9 mm 1 mps 738 mmHg 88%
    22:00 +26°C° 1.3 mm 1 mps 738 mmHg 88%
    23:00 +26°C° 1.3 mm 1 mps 738 mmHg 88%

    Tomorrow, 21 June, Thursday

    Time Temperature Precipitation Wind Pressure Humidity
    00:00 +25°C° 1.3 mm 1 mps 738 mmHg 88%
    01:00 +25°C° 0.1 mm 1 mps 737 mmHg 88%
    02:00 +23°C° 0.1 mm 0 mps 737 mmHg 89%
    03:00 +23°C° 0.1 mm 0 mps 736 mmHg 90%
    04:00 +23°C° 0 mm 0 mps 736 mmHg 90%
    05:00 +23°C° 0 mm 0 mps 737 mmHg 90%
    06:00 +23°C° 0 mm 0 mps 737 mmHg 90%
    07:00 +24°C° 0.1 mm 0 mps 737 mmHg 86%
    08:00 +25°C° 0.1 mm 0 mps 738 mmHg 82%
    09:00 +26°C° 0.1 mm 0 mps 738 mmHg 78%
    10:00 +29°C° 0.4 mm 1 mps 738 mmHg 75%
    11:00 +30°C° 0.4 mm 1 mps 738 mmHg 72%
    12:00 +30°C° 0.4 mm 1 mps 738 mmHg 69%
    13:00 +30°C° 1.5 mm 2 mps 737 mmHg 72%
    14:00 +29°C° 1.5 mm 2 mps 736 mmHg 76%
    15:00 +29°C° 1.5 mm 3 mps 736 mmHg 79%
    16:00 +28°C° 1.8 mm 2 mps 736 mmHg 82%
    17:00 +27°C° 1.8 mm 2 mps 736 mmHg 86%
    18:00 +27°C° 1.8 mm 1 mps 736 mmHg 89%
    19:00 +26°C° 1.5 mm 1 mps 737 mmHg 89%
    20:00 +26°C° 1.5 mm 1 mps 737 mmHg 89%
    21:00 +26°C° 1.5 mm 1 mps 738 mmHg 90%
    22:00 +26°C° 0.5 mm 1 mps 737 mmHg 90%
    23:00 +26°C° 0.5 mm 1 mps 737 mmHg 91%

    Day after tomorrow, 22 June, Friday

    Time Temperature Precipitation Wind Pressure Humidity
    00:00 +25°C° 0.5 mm 1 mps 737 mmHg 91%
    01:00 +25°C° 0 mm 1 mps 737 mmHg 92%
    02:00 +25°C° 0 mm 1 mps 736 mmHg 92%
    03:00 +25°C° 0 mm 1 mps 736 mmHg 92%
    04:00 +25°C° 0 mm 1 mps 736 mmHg 92%
    05:00 +25°C° 0 mm 1 mps 736 mmHg 92%
    06:00 +25°C° 0 mm 2 mps 736 mmHg 92%
    07:00 +26°C° 0 mm 2 mps 737 mmHg 86%
    08:00 +28°C° 0 mm 2 mps 737 mmHg 80%
    09:00 +29°C° 0 mm 2 mps 738 mmHg 75%
    10:00 +30°C° 0.1 mm 2 mps 737 mmHg 70%
    11:00 +31°C° 0.1 mm 2 mps 737 mmHg 65%
    12:00 +32°C° 0.1 mm 2 mps 737 mmHg 61%
    13:00 +32°C° 1.1 mm 2 mps 736 mmHg 63%
    14:00 +32°C° 1.1 mm 2 mps 736 mmHg 65%
    15:00 +33°C° 1.1 mm 3 mps 735 mmHg 67%
    16:00 +30°C° 1.3 mm 2 mps 735 mmHg 73%
    17:00 +29°C° 1.3 mm 2 mps 735 mmHg 79%
    18:00 +27°C° 1.3 mm 2 mps 735 mmHg 86%
    19:00 +27°C° 1.3 mm 1 mps 736 mmHg 86%
    20:00 +27°C° 1.3 mm 1 mps 736 mmHg 86%
    21:00 +26°C° 1.3 mm 1 mps 737 mmHg 87%
    22:00 +26°C° 0.1 mm 1 mps 737 mmHg 88%
    23:00 +26°C° 0.1 mm 1 mps 737 mmHg 89%

    23 June, Saturday

    Time Temperature Precipitation Wind Pressure Humidity
    00:00 +25°C° 0.1 mm 1 mps 737 mmHg 90%
    01:00 +25°C° 0 mm 1 mps 736 mmHg 90%
    02:00 +25°C° 0 mm 1 mps 736 mmHg 91%
    03:00 +25°C° 0 mm 1 mps 735 mmHg 92%
    04:00 +25°C° 0 mm 1 mps 735 mmHg 92%
    05:00 +25°C° 0 mm 1 mps 735 mmHg 92%
    06:00 +25°C° 0 mm 1 mps 736 mmHg 91%
    07:00 +26°C° 0 mm 1 mps 736 mmHg 84%
    08:00 +28°C° 0 mm 1 mps 736 mmHg 76%
    09:00 +30°C° 0 mm 1 mps 737 mmHg 68%
    10:00 +31°C° 0 mm 1 mps 737 mmHg 64%
    11:00 +32°C° 0 mm 1 mps 736 mmHg 61%
    12:00 +33°C° 0 mm 1 mps 736 mmHg 57%
    13:00 +32°C° 1.2 mm 2 mps 736 mmHg 62%
    14:00 +32°C° 1.2 mm 2 mps 735 mmHg 67%
    15:00 +31°C° 1.2 mm 2 mps 734 mmHg 72%
    16:00 +30°C° 1.3 mm 2 mps 735 mmHg 77%
    17:00 +28°C° 1.3 mm 1 mps 735 mmHg 82%
    18:00 +27°C° 1.3 mm 1 mps 735 mmHg 87%
    19:00 +27°C° 1 mm 1 mps 735 mmHg 87%
    20:00 +27°C° 1 mm 1 mps 736 mmHg 88%
    21:00 +26°C° 1 mm 1 mps 736 mmHg 88%
    22:00 +26°C° 1 mm 1 mps 736 mmHg 88%
    23:00 +26°C° 1 mm 1 mps 736 mmHg 89%

    24 June, Sunday

    Time Temperature Precipitation Wind Pressure Humidity
    00:00 +26°C° 1 mm 1 mps 736 mmHg 89%
    01:00 +26°C° 0.8 mm 1 mps 736 mmHg 89%
    02:00 +25°C° 0.8 mm 1 mps 735 mmHg 90%
    03:00 +25°C° 0.8 mm 1 mps 735 mmHg 90%
    04:00 +25°C° 0.2 mm 1 mps 735 mmHg 90%
    05:00 +25°C° 0.2 mm 1 mps 735 mmHg 90%
    06:00 +25°C° 0.2 mm 1 mps 735 mmHg 90%
    07:00 +27°C° 0.4 mm 1 mps 736 mmHg 84%
    08:00 +28°C° 0.4 mm 1 mps 736 mmHg 79%
    09:00 +29°C° 0.4 mm 1 mps 737 mmHg 73%
    10:00 +30°C° 0.8 mm 1 mps 736 mmHg 71%
    11:00 +30°C° 0.8 mm 1 mps 736 mmHg 69%
    12:00 +31°C° 0.8 mm 2 mps 736 mmHg 67%
    13:00 +30°C° 1.7 mm 2 mps 735 mmHg 71%
    14:00 +30°C° 1.7 mm 2 mps 735 mmHg 75%
    15:00 +29°C° 1.7 mm 2 mps 734 mmHg 78%
    16:00 +28°C° 1.2 mm 2 mps 734 mmHg 81%
    17:00 +27°C° 1.2 mm 2 mps 735 mmHg 85%
    18:00 +27°C° 1.2 mm 2 mps 735 mmHg 88%
    19:00 +26°C° 0.6 mm 1 mps 735 mmHg 88%
    20:00 +26°C° 0.6 mm 1 mps 736 mmHg 88%
    21:00 +26°C° 0.6 mm 1 mps 736 mmHg 88%
    22:00 +26°C° 0.9 mm 1 mps 736 mmHg 89%
    23:00 +25°C° 0.9 mm 1 mps 736 mmHg 89%

    25 June, Monday

    Time Temperature Precipitation Wind Pressure Humidity
    00:00 +25°C° 0.9 mm 1 mps 736 mmHg 89%
    01:00 +25°C° 0.6 mm 1 mps 736 mmHg 90%
    02:00 +25°C° 0.6 mm 1 mps 735 mmHg 90%
    03:00 +25°C° 0.6 mm 1 mps 735 mmHg 91%
    04:00 +25°C° 0 mm 1 mps 736 mmHg 91%
    05:00 +25°C° 0 mm 1 mps 736 mmHg 91%
    06:00 +25°C° 0 mm 1 mps 736 mmHg 91%
    07:00 +26°C° 0.1 mm 1 mps 737 mmHg 86%
    08:00 +28°C° 0.1 mm 1 mps 737 mmHg 80%
    09:00 +29°C° 0.1 mm 1 mps 737 mmHg 75%
    10:00 +30°C° 0.3 mm 1 mps 737 mmHg 72%
    11:00 +30°C° 0.3 mm 1 mps 737 mmHg 69%
    12:00 +31°C° 0.3 mm 2 mps 736 mmHg 66%
    13:00 +30°C° 1 mm 2 mps 736 mmHg 71%
    14:00 +30°C° 1 mm 2 mps 735 mmHg 75%
    15:00 +29°C° 1 mm 3 mps 735 mmHg 79%
    16:00 +28°C° 1 mm 2 mps 735 mmHg 83%
    17:00 +27°C° 1 mm 2 mps 736 mmHg 87%
    18:00 +26°C° 1 mm 2 mps 736 mmHg 90%
    19:00 +26°C° 1.8 mm 2 mps 736 mmHg 90%
    20:00 +26°C° 1.8 mm 1 mps 737 mmHg 91%
    21:00 +26°C° 1.8 mm 1 mps 737 mmHg 91%
    22:00 +26°C° 1.4 mm 1 mps 737 mmHg 91%
    23:00 +25°C° 1.4 mm 1 mps 736 mmHg 92%
    Show more